Wahoo, NE

11:20 AM CDT on September 25, 2016 (GMT -0500)
Wahoo Municipal

Weather History for KAHQ - May, 2014

Change the Weather History Date:

Friday, May 30, 2014

  Actual Average Record
Temperature  
Mean Temperature 76 °F -  
Max Temperature 87 °F 78 °F 97 °F (1989)
Min Temperature 66 °F 54 °F 40 °F (1992)
Cooling Degree Days 12    
Growing Degree Days 26 (Base 50)    
Moisture  
Dew Point 61 °F    
Average Humidity 62    
Maximum Humidity 87    
Minimum Humidity 36    
Precipitation  
Precipitation 0.00 in - - ()
Sea Level Pressure  
Sea Level Pressure 30.03 in    
Wind  
Wind Speed 6 mph (SE)    
Max Wind Speed 20 mph    
Max Gust Speed 26 mph    
Visibility 9 miles    
Events Rain    
Averages and records for this station are not official NWS values.
T = Trace of Precipitation, MM = Missing Value Source: NWS Daily Summary

Daily Weather History Graph

Daily Weather History Graph

Search for Another Location

Airport or City:

Trip Planner

Search our weather history database for the weather conditions in past years. The results will help you decide how hot, cold, wet, or windy it might be!

Date:

Astronomy

May. 30, 2014 Rise Set
Actual Time 5:56 AM CDT 8:51 PM CDT
Civil Twilight 5:23 AM CDT 9:24 PM CDT
Nautical Twilight 4:42 AM CDT 10:06 PM CDT
Astronomical Twilight 3:54 AM CDT 10:54 PM CDT
Moon 7:42 AM CDT (5/30) 10:28 PM CDT (5/30)
Length of Visible Light 16h 00m
Length of Day
14h 54m
Waxing Crescent, 4% of the Moon is Illuminated
May 30
Waxing Crescent
Jun 5
First Quarter
Jun 12
Full
Jun 19
Last Quarter
Jun 27
New

Hourly Weather History & Observations

Time (CDT) Temp. Heat Index Dew Point Humidity Pressure Visibility Wind Dir Wind Speed Gust Speed Precip Events Conditions
12:15 AM 70.7 °F - 61.7 °F 73% 30.02 in 10.0 mi Calm Calm - N/A   Scattered Clouds
12:35 AM 70.7 °F - 61.7 °F 73% 30.02 in 10.0 mi Calm Calm - N/A   Mostly Cloudy
12:55 AM 70.9 °F - 61.7 °F 73% 30.02 in 10.0 mi Calm Calm - N/A   Mostly Cloudy
1:15 AM 70.2 °F - 62.1 °F 75% 30.02 in 10.0 mi Calm Calm - N/A   Scattered Clouds
1:35 AM 69.1 °F - 61.7 °F 77% 30.01 in 10.0 mi East 4.6 mph - N/A   Scattered Clouds
1:55 AM 69.3 °F - 62.6 °F 79% 30.01 in 10.0 mi ESE 5.8 mph - N/A   Scattered Clouds
2:15 AM 69.3 °F - 62.6 °F 79% 30.01 in 10.0 mi ESE 4.6 mph - N/A   Scattered Clouds
2:35 AM 68.5 °F - 62.4 °F 81% 30.01 in 10.0 mi East 5.8 mph - N/A   Scattered Clouds
2:55 AM 68.0 °F - 62.2 °F 82% 30.01 in 10.0 mi East 3.5 mph - N/A   Scattered Clouds
3:15 AM 67.5 °F - 62.2 °F 83% 30.01 in 10.0 mi ESE 4.6 mph - N/A   Clear
3:35 AM 67.1 °F - 62.2 °F 84% 30.00 in 10.0 mi ESE 4.6 mph - N/A   Clear
3:55 AM 66.7 °F - 62.1 °F 85% 30.01 in 10.0 mi ESE 5.8 mph - N/A   Clear
4:15 AM 67.3 °F - 62.8 °F 85% 30.01 in 10.0 mi ESE 5.8 mph - N/A   Clear
4:35 AM 66.9 °F - 62.6 °F 86% 30.01 in 7.0 mi ESE 6.9 mph - N/A   Clear
4:55 AM 67.1 °F - 62.6 °F 85% 30.01 in 7.0 mi ESE 5.8 mph - N/A   Clear
5:15 AM 67.3 °F - 63.0 °F 86% 30.01 in 7.0 mi ESE 6.9 mph - N/A   Clear
5:35 AM 67.3 °F - 63.0 °F 86% 30.01 in 7.0 mi ESE 6.9 mph - N/A   Clear
5:55 AM 67.1 °F - 62.8 °F 86% 30.02 in 5.0 mi ESE 4.6 mph - N/A   Clear
6:15 AM 66.6 °F - 62.6 °F 87% 30.02 in 5.0 mi SE 4.6 mph - N/A   Clear
6:35 AM 66.9 °F - 62.8 °F 87% 30.04 in 5.0 mi Calm Calm - N/A   Clear
6:55 AM 67.6 °F - 63.5 °F 87% 30.04 in 5.0 mi ESE 4.6 mph - N/A   Clear
7:15 AM 69.1 °F - 64.0 °F 84% 30.04 in 7.0 mi SE 4.6 mph - N/A   Clear
7:35 AM 70.2 °F - 64.4 °F 82% 30.06 in 7.0 mi SE 5.8 mph - N/A   Clear
7:55 AM 70.9 °F - 64.4 °F 80% 30.06 in 10.0 mi SE 9.2 mph - N/A   Scattered Clouds
8:15 AM 71.6 °F - 64.6 °F 78% 30.06 in 10.0 mi SSE 5.8 mph - N/A   Mostly Cloudy
8:35 AM 72.5 °F - 64.4 °F 76% 30.06 in 10.0 mi South 4.6 mph - N/A   Scattered Clouds
8:55 AM 74.1 °F - 65.1 °F 73% 30.06 in 10.0 mi SE 6.9 mph - N/A   Scattered Clouds
9:15 AM 75.2 °F - 65.1 °F 71% 30.06 in 10.0 mi Calm Calm - N/A   Clear
9:35 AM 77.2 °F - 64.9 °F 66% 30.06 in 10.0 mi SSW 3.5 mph - N/A   Clear
9:55 AM 79.0 °F - 64.4 °F 61% 30.07 in 10.0 mi SSW 4.6 mph - N/A   Scattered Clouds
10:15 AM 79.5 °F - 63.5 °F 58% 30.07 in 10.0 mi SSE 4.6 mph - N/A   Overcast
10:35 AM 80.2 °F 81.6 °F 63.3 °F 56% 30.07 in 10.0 mi Calm Calm - N/A   Overcast
10:55 AM 80.1 °F 81.1 °F 61.7 °F 53% 30.07 in 10.0 mi SE 3.5 mph - N/A   Overcast
11:15 AM 80.2 °F 81.3 °F 61.9 °F 53% 30.07 in 10.0 mi South 9.2 mph - N/A   Overcast
11:35 AM 82.4 °F 83.0 °F 61.7 °F 49% 30.07 in 10.0 mi South 8.1 mph - N/A   Overcast
11:55 AM 83.3 °F 83.7 °F 61.0 °F 47% 30.06 in 10.0 mi SE 9.2 mph - N/A   Mostly Cloudy
12:15 PM 84.2 °F 84.0 °F 59.7 °F 43% 30.06 in 10.0 mi SSE 9.2 mph 16.1 mph N/A   Scattered Clouds
12:35 PM 84.0 °F 84.2 °F 60.3 °F 45% 30.05 in 10.0 mi SE 8.1 mph - N/A   Clear
12:55 PM 84.4 °F 84.2 °F 59.4 °F 43% 30.05 in 10.0 mi ESE 9.2 mph 20.7 mph N/A   Clear
1:15 PM 84.7 °F 84.4 °F 59.5 °F 42% 30.04 in 10.0 mi ESE 8.1 mph - N/A   Scattered Clouds
1:35 PM 85.3 °F 84.6 °F 58.6 °F 40% 30.04 in 10.0 mi SSE 15.0 mph 23.0 mph N/A   Scattered Clouds
1:55 PM 85.5 °F 84.8 °F 58.6 °F 40% 30.04 in 10.0 mi ESE 11.5 mph 20.7 mph N/A   Scattered Clouds
2:15 PM 84.9 °F 84.4 °F 58.5 °F 41% 30.04 in 10.0 mi ESE 15.0 mph 19.6 mph N/A   Scattered Clouds
2:35 PM 86.4 °F 85.6 °F 58.8 °F 39% 30.03 in 10.0 mi SE 13.8 mph 18.4 mph N/A   Scattered Clouds
2:55 PM 86.0 °F 85.7 °F 59.9 °F 41% 30.03 in 10.0 mi SE 15.0 mph 20.7 mph N/A   Scattered Clouds
3:15 PM 82.8 °F 83.3 °F 61.2 °F 48% 30.02 in 10.0 mi ESE 17.3 mph 26.5 mph N/A   Scattered Clouds
4:15 PM 86.7 °F 86.3 °F 59.9 °F 40% 30.00 in 10.0 mi SE 10.4 mph - N/A   Clear
4:35 PM 86.7 °F 86.1 °F 58.8 °F 39% 30.00 in 10.0 mi SE 13.8 mph 18.4 mph N/A   Clear
4:55 PM 87.1 °F 86.1 °F 58.1 °F 37% 29.99 in 10.0 mi ESE 13.8 mph 20.7 mph N/A   Clear
5:35 PM 86.9 °F 85.6 °F 57.2 °F 36% 29.98 in 10.0 mi SE 16.1 mph 23.0 mph N/A   Clear
5:55 PM 85.3 °F 84.3 °F 57.2 °F 38% 29.97 in 10.0 mi SSE 16.1 mph - N/A   Scattered Clouds
6:15 PM 86.0 °F 85.2 °F 58.3 °F 39% 29.97 in 10.0 mi SE 19.6 mph - N/A   Scattered Clouds
6:35 PM 85.6 °F 85.2 °F 59.2 °F 41% 29.96 in 10.0 mi SE 17.3 mph 20.7 mph N/A   Clear
6:55 PM 84.9 °F 84.6 °F 59.2 °F 42% 29.97 in 10.0 mi ESE 18.4 mph 21.9 mph N/A   Clear
7:15 PM 84.4 °F 83.8 °F 58.1 °F 41% 29.97 in 10.0 mi SE 15.0 mph - N/A   Clear
7:35 PM 84.4 °F 83.7 °F 57.4 °F 40% 29.97 in 10.0 mi SE 12.7 mph - N/A   Clear
7:55 PM 84.2 °F 84.0 °F 59.2 °F 43% 29.98 in 10.0 mi ESE 17.3 mph - N/A   Scattered Clouds
8:15 PM 83.1 °F 83.0 °F 59.2 °F 44% 29.99 in 10.0 mi SE 13.8 mph - N/A   Mostly Cloudy
8:55 PM 80.1 °F 81.0 °F 60.3 °F 51% 30.01 in 10.0 mi SE 6.9 mph - N/A   Scattered Clouds
9:15 PM 78.4 °F - 63.1 °F 59% 30.01 in 10.0 mi South 6.9 mph - N/A Rain Light Rain
9:35 PM 77.4 °F - 63.5 °F 62% 30.02 in 10.0 mi SSE 4.6 mph - N/A   Mostly Cloudy
9:55 PM 77.5 °F - 62.4 °F 59% 30.03 in 10.0 mi SE 9.2 mph - N/A   Scattered Clouds
10:15 PM 78.3 °F - 61.2 °F 56% 30.04 in 10.0 mi SE 8.1 mph - N/A   Clear
10:35 PM 77.4 °F - 61.2 °F 57% 30.04 in 10.0 mi SE 9.2 mph - N/A   Clear
10:55 PM 76.1 °F - 61.3 °F 60% 30.04 in 10.0 mi SE 9.2 mph - N/A   Clear
11:15 PM 75.6 °F - 61.7 °F 62% 30.04 in 10.0 mi SE 8.1 mph - N/A   Clear
11:35 PM 74.8 °F - 61.9 °F 64% 30.04 in 10.0 mi SE 8.1 mph - N/A   Scattered Clouds
11:55 PM 74.3 °F - 61.9 °F 65% 30.05 in 10.0 mi SE 6.9 mph - N/A   Scattered Clouds